Location: Lachepaillet
(43.4918°N, 1.4874°W)
Time: 23:15:13
(UTC+00:00)

CZ-4B R/B - Pass Details

Date: 15 May 2026
Orbit: 807 x 881 km, 98.9° (Epoch: 11 June)

Event Time Altitude Azimuth Distance (km) Brightness Sun altitude
Exits shadow 20:05:21 - 152° (SSE) 2,963 5.5 -7.3°
Reaches altitude 10° 20:06:28 10° 150° (SSE) 2,529 5.1 -7.4°
Maximum altitude 20:12:01 61° 71° (ENE) 988 3.4 -8.2°
Drops below altitude 10° 20:17:32 10° 353° (N) 2,519 6.4 -9.0°
Sets 20:19:55 0° 350° (N) 3,450 7.2 -9.4°
